Date String (YYYY-MM-DD hh:mm:ss) UTC,Instrument flags,Ambient pressure (hPa),Sample flow (lpm),Bypass flow (lpm),Sample temperature (°C),Ambient temperature (°C),ASC tube jacket temperature (°C),LED temperature (°C),Box temperature (°C),Sample RH (%),Span deviation,Mass concentration (μg/m³),Mass concentration (μg/m³),Mass concentration (μg/m³)
DateTimeUTC,F1_M11,P_M11,Q1_M11,Q2_M11,T1_M11,T2_M11,T3_M11,T4_M11,T5_M11,U1_M11,ZSPAN_M11,X2_M11,X0_M11,X1_M11
2022-01-25 12:00:00,,0824.3,5.01,0.00,22.4,21.7,00.0,31.4,24.2,15.2,0000.0,0003.73,0006.16,0003.42
2022-01-25 12:01:00,,0824.3,5.00,0.00,22.4,21.7,00.0,31.4,24.1,15.3,0000.0,0003.74,0006.11,0003.46
2022-01-25 12:02:00,,0824.3,5.00,0.00,22.4,21.7,00.0,31.4,24.2,15.3,0000.0,0003.76,0006.09,0003.50
2022-01-25 12:03:00,,0824.3,5.00,0.00,22.4,21.7,00.0,31.4,24.1,15.3,0000.0,0003.80,0006.14,0003.55
2022-01-25 12:04:00,,0824.3,5.00,0.00,22.4,21.7,00.0,31.4,24.1,15.3,0000.0,0003.87,0006.39,0003.59
2022-01-25 12:05:00,,0824.4,5.01,0.00,22.4,21.6,00.0,31.4,24.1,15.3,0000.0,0003.91,0006.48,0003.63
2022-01-25 12:06:00,,0824.3,5.00,0.00,22.3,21.6,00.0,31.4,24.1,15.3,0000.0,0003.94,0006.53,0003.67
2022-01-25 12:07:00,,0824.4,5.01,0.00,22.3,21.6,00.0,31.3,24.1,15.3,0000.0,0003.98,0006.58,0003.72
2022-01-25 12:08:00,,0824.4,4.99,0.00,22.3,21.6,00.0,31.3,24.0,15.4,0000.0,0004.00,0006.56,0003.76
2022-01-25 12:09:00,,0824.4,5.00,0.00,22.3,21.6,00.0,31.3,24.0,15.4,0000.0,0004.06,0006.40,0003.81
2022-01-25 12:10:00,,0824.4,5.00,0.00,22.3,21.9,00.0,31.3,24.1,15.4,0000.0,0004.08,0006.08,0003.86
2022-01-25 12:11:00,,0824.5,5.00,0.00,22.4,22.6,00.0,31.4,24.3,15.3,0000.0,0004.12,0006.55,0003.90
2022-01-25 12:12:00,,0824.5,5.00,0.00,22.5,23.2,00.0,31.4,24.5,15.2,0000.0,0004.18,0006.80,0003.94
2022-01-25 12:13:00,,0824.5,5.00,0.00,22.6,23.1,00.0,31.4,24.6,15.1,0000.0,0004.21,0006.87,0003.97
2022-01-25 12:14:00,,0824.5,5.00,0.00,22.7,22.9,00.0,31.4,24.6,15.1,0000.0,0004.24,0006.88,0004.01
2022-01-25 12:15:00,,0824.5,5.01,0.00,22.6,22.6,00.0,31.4,24.6,15.1,0000.0,0004.26,0006.83,0004.05
2022-01-25 12:16:00,,0824.5,5.01,0.00,22.6,22.5,00.0,31.5,24.5,15.1,0000.0,0004.32,0006.99,0004.09
2022-01-25 12:17:00,,0824.5,5.00,0.00,22.6,22.4,00.0,31.5,24.5,15.1,0000.0,0004.37,0007.12,0004.13
2022-01-25 12:18:00,,0824.5,5.00,0.00,22.6,22.3,00.0,31.5,24.4,15.2,0000.0,0004.42,0007.23,0004.17
2022-01-25 12:19:00,,0824.6,4.99,0.00,22.6,22.2,00.0,31.5,24.4,15.2,0000.0,0004.48,0007.43,0004.21
2022-01-25 12:20:00,,0824.6,5.00,0.00,22.6,22.1,00.0,31.5,24.4,15.2,0000.0,0004.50,0007.55,0004.25
2022-01-25 12:21:00,,0824.6,5.02,0.00,22.6,22.1,00.0,31.5,24.4,15.2,0000.0,0004.52,0007.53,0004.27
2022-01-25 12:22:00,,0824.6,4.99,0.00,22.6,22.0,00.0,31.5,24.3,15.2,0000.0,0004.54,0007.25,0004.29
2022-01-25 12:23:00,,0824.7,4.99,0.00,22.5,21.9,00.0,31.5,24.3,15.2,0000.0,0004.55,0007.16,0004.32
2022-01-25 12:24:00,,0824.6,5.01,0.00,22.5,21.8,00.0,31.5,24.3,15.2,0000.0,0004.58,0007.15,0004.34
2022-01-25 12:25:00,,0824.6,5.00,0.00,22.5,21.8,00.0,31.5,24.3,15.3,0000.0,0004.62,0007.27,0004.37
2022-01-25 12:26:00,,0824.6,4.99,0.00,22.5,21.8,00.0,31.5,24.3,15.3,0000.0,0004.62,0007.21,0004.39
2022-01-25 12:27:00,,0824.8,4.99,0.00,22.5,21.8,00.0,31.4,24.2,15.3,0000.0,0004.62,0007.13,0004.41
2022-01-25 12:28:00,,0824.6,5.01,0.00,22.5,21.7,00.0,31.4,24.2,15.3,0000.0,0004.63,0007.10,0004.44
2022-01-25 12:29:00,,0824.7,4.99,0.00,22.4,21.7,00.0,31.4,24.2,15.3,0000.0,0004.68,0007.20,0004.47
2022-01-25 12:30:00,,0824.7,4.99,0.00,22.4,21.7,00.0,31.4,24.2,15.3,0000.0,0004.71,0007.23,0004.49
2022-01-25 12:31:00,,0824.8,5.00,0.00,22.4,21.7,00.0,31.4,24.2,15.4,0000.0,0004.72,0006.96,0004.50
2022-01-25 12:32:00,,0824.8,5.01,0.00,22.4,21.7,00.0,31.4,24.1,15.4,0000.0,0004.74,0007.04,0004.52
2022-01-25 12:33:00,,0824.9,5.00,0.00,22.4,21.6,00.0,31.4,24.1,15.4,0000.0,0004.76,0007.11,0004.54
2022-01-25 12:34:00,,0824.9,5.00,0.00,22.4,21.6,00.0,31.4,24.1,15.4,0000.0,0004.77,0007.10,0004.56
2022-01-25 12:35:00,,0824.9,4.99,0.00,22.4,21.6,00.0,31.4,24.1,15.4,0000.0,0004.79,0007.14,0004.58
2022-01-25 12:36:00,,0824.9,4.99,0.00,22.4,21.6,00.0,31.4,24.1,15.4,0000.0,0004.79,0007.07,0004.59
2022-01-25 12:37:00,,0824.9,5.00,0.00,22.4,22.1,00.0,31.4,24.2,15.4,0000.0,0004.81,0007.19,0004.60
2022-01-25 12:38:00,,0824.9,5.01,0.00,22.5,22.9,00.0,31.4,24.5,15.3,0000.0,0004.83,0007.34,0004.60
2022-01-25 12:39:00,,0824.9,5.00,0.00,22.7,23.3,00.0,31.5,24.7,15.2,0000.0,0004.83,0007.32,0004.60
2022-01-25 12:40:00,,0824.9,4.99,0.00,22.7,23.1,00.0,31.5,24.7,15.1,0000.0,0004.79,0007.18,0004.59
2022-01-25 12:41:00,,0824.9,5.01,0.00,22.7,22.9,00.0,31.5,24.7,15.1,0000.0,0004.75,0007.05,0004.57
2022-01-25 12:42:00,,0825.0,5.00,0.00,22.7,22.7,00.0,31.5,24.6,15.1,0000.0,0004.72,0006.97,0004.56
2022-01-25 12:43:00,,0825.0,5.00,0.00,22.7,22.5,00.0,31.5,24.5,15.1,0000.0,0004.72,0006.87,0004.55
2022-01-25 12:44:00,,0825.1,5.01,0.00,22.7,22.4,00.0,31.5,24.5,15.1,0000.0,0004.70,0006.81,0004.54
2022-01-25 12:45:00,,0825.1,5.00,0.00,22.7,22.3,00.0,31.5,24.4,15.1,0000.0,0004.70,0006.84,0004.53
2022-01-25 12:46:00,,0825.1,5.00,0.00,22.6,22.2,00.0,31.5,24.4,15.1,0000.0,0004.71,0006.93,0004.53
2022-01-25 12:47:00,,0825.1,5.01,0.00,22.6,22.1,00.0,31.5,24.4,15.2,0000.0,0004.71,0006.97,0004.54
2022-01-25 12:48:00,,0825.1,4.99,0.00,22.6,22.0,00.0,31.5,24.3,15.2,0000.0,0004.71,0006.94,0004.53
2022-01-25 12:49:00,,0825.2,5.00,0.00,22.6,22.0,00.0,31.5,24.3,15.2,0000.0,0004.67,0006.68,0004.52
2022-01-25 12:50:00,,0825.1,5.00,0.00,22.6,21.9,00.0,31.5,24.3,15.2,0000.0,0004.67,0006.69,0004.51
2022-01-25 12:51:00,,0825.2,4.99,0.00,22.5,21.9,00.0,31.5,24.2,15.2,0000.0,0004.66,0006.67,0004.50
2022-01-25 12:52:00,,0825.1,5.00,0.00,22.5,21.8,00.0,31.5,24.2,15.2,0000.0,0004.65,0006.69,0004.49
2022-01-25 12:53:00,,0825.1,5.00,0.00,22.5,21.8,00.0,31.5,24.2,15.2,0000.0,0004.64,0006.69,0004.47
2022-01-25 12:54:00,,0825.2,5.01,0.00,22.5,21.7,00.0,31.5,24.2,15.2,0000.0,0004.61,0006.62,0004.44
2022-01-25 12:55:00,,0825.2,4.99,0.00,22.4,21.7,00.0,31.4,24.1,15.2,0000.0,0004.56,0006.54,0004.39
2022-01-25 12:56:00,,0825.2,4.99,0.00,22.5,22.1,00.0,31.5,24.2,15.2,0000.0,0004.52,0006.45,0004.34
2022-01-25 12:57:00,,0825.2,5.01,0.00,22.6,22.9,00.0,31.5,24.5,15.1,0000.0,0004.44,0006.17,0004.29
2022-01-25 12:58:00,,0825.3,4.99,0.00,22.7,23.4,00.0,31.6,24.7,15.0,0000.0,0004.38,0006.03,0004.22
2022-01-25 12:59:00,,0825.3,5.00,0.00,22.8,23.2,00.0,31.6,24.8,14.9,0000.0,0004.33,0005.97,0004.18
